GIA203 WSSS-WAHI

Flight info

Callsign GIA203
Flight time 1h 51m
Altitude 39000
Route IDBUD1A IDBUD T24 SURGA M635 RAFIS A576S ANY W17N SO SO2C
Aircraft A339/H-SADE1E2E3GHIJ3J5M1P2RWXY/LB2D1

Departure

Time 2026-04-25 10:49
Airport Singapore Changi Airport (WSSS)

Arrival

Time 2026-04-25 12:40
Airport Yogyakarta International Airport (WAHI)
Time Latitude Longitude Altitude Speed Heading
2026-04-25 10:21 1.35989 103.99231 36 ft 0 kts 293°
2026-04-25 10:34 1.35989 103.99232 37 ft 1 kts 293°
2026-04-25 10:34 1.35984 103.99246 36 ft 2 kts 290°
2026-04-25 10:34 1.35978 103.99259 37 ft 2 kts 290°
2026-04-25 10:35 1.35973 103.99274 37 ft 2 kts 291°
2026-04-25 10:35 1.35968 103.99287 37 ft 2 kts 291°
2026-04-25 10:35 1.35962 103.99301 37 ft 2 kts 309°
2026-04-25 10:35 1.35949 103.99309 37 ft 2 kts 354°
2026-04-25 10:36 1.35935 103.99307 37 ft 2 kts 38°
2026-04-25 10:36 1.35925 103.99296 37 ft 2 kts 47°
2026-04-25 10:36 1.35913 103.99287 37 ft 2 kts 28°
2026-04-25 10:36 1.35900 103.99280 37 ft 2 kts 30°
2026-04-25 10:37 1.35892 103.99274 37 ft 1 kts 32°
2026-04-25 10:37 1.35886 103.99271 37 ft 0 kts 24°
2026-04-25 10:39 1.35898 103.99277 36 ft 3 kts 25°
2026-04-25 10:40 1.35919 103.99298 36 ft 5 kts 69°
2026-04-25 10:40 1.35913 103.99348 36 ft 8 kts 106°
2026-04-25 10:40 1.35888 103.99416 36 ft 11 kts 113°
2026-04-25 10:40 1.35855 103.99497 36 ft 13 kts 114°
2026-04-25 10:41 1.35775 103.99528 36 ft 14 kts 200°
2026-04-25 10:41 1.35672 103.99484 36 ft 17 kts 203°
2026-04-25 10:41 1.35554 103.99435 36 ft 19 kts 202°
2026-04-25 10:41 1.35426 103.99383 36 ft 20 kts 202°
2026-04-25 10:42 1.35288 103.99325 36 ft 22 kts 203°
2026-04-25 10:42 1.35141 103.99264 36 ft 23 kts 204°
2026-04-25 10:42 1.34990 103.99197 36 ft 24 kts 203°
2026-04-25 10:42 1.34834 103.99131 36 ft 24 kts 202°
2026-04-25 10:43 1.34688 103.99070 36 ft 21 kts 204°
2026-04-25 10:43 1.34544 103.99010 36 ft 23 kts 201°
2026-04-25 10:43 1.34405 103.98951 36 ft 13 kts 204°
2026-04-25 10:43 1.34318 103.98913 36 ft 14 kts 204°
2026-04-25 10:44 1.34215 103.98869 36 ft 17 kts 202°
2026-04-25 10:44 1.34098 103.98820 36 ft 19 kts 202°
2026-04-25 10:44 1.33987 103.98773 36 ft 16 kts 202°
2026-04-25 10:44 1.33876 103.98727 36 ft 18 kts 203°
2026-04-25 10:45 1.33754 103.98676 36 ft 19 kts 202°
2026-04-25 10:45 1.33621 103.98619 36 ft 21 kts 205°
2026-04-25 10:45 1.33505 103.98570 36 ft 15 kts 203°
2026-04-25 10:45 1.33437 103.98541 36 ft 9 kts 203°
2026-04-25 10:46 1.33363 103.98509 36 ft 12 kts 203°
2026-04-25 10:46 1.33270 103.98470 36 ft 15 kts 203°
2026-04-25 10:46 1.33163 103.98425 36 ft 17 kts 202°
2026-04-25 10:46 1.33043 103.98374 36 ft 19 kts 202°
2026-04-25 10:47 1.32941 103.98393 36 ft 11 kts 123°
2026-04-25 10:47 1.32905 103.98473 36 ft 13 kts 110°
2026-04-25 10:47 1.32910 103.98521 36 ft 6 kts 29°
2026-04-25 10:47 1.32937 103.98530 36 ft 9 kts 15°
2026-04-25 10:48 1.33213 103.98646 36 ft 75 kts 23°
2026-04-25 10:48 1.33885 103.98925 37 ft 131 kts 26°
2026-04-25 10:48 1.34884 103.99339 124 ft 168 kts 21°
2026-04-25 10:48 1.35990 103.99805 571 ft 176 kts 25°
2026-04-25 10:49 1.37126 104.00310 1121 ft 184 kts 26°
2026-04-25 10:49 1.38300 104.00848 1735 ft 188 kts 27°
2026-04-25 10:49 1.39485 104.01403 2338 ft 194 kts 25°
2026-04-25 10:49 1.40793 104.01936 2771 ft 211 kts 24°
2026-04-25 10:50 1.42197 104.02543 3187 ft 228 kts 35°
2026-04-25 10:50 1.43212 104.03779 3545 ft 243 kts 71°
2026-04-25 10:50 1.43237 104.05512 3856 ft 262 kts 108°
2026-04-25 10:50 1.42223 104.07033 4388 ft 271 kts 130°
2026-04-25 10:51 1.40961 104.08444 5019 ft 273 kts 128°
2026-04-25 10:51 1.39726 104.09893 5636 ft 275 kts 127°
2026-04-25 10:51 1.38517 104.11362 6251 ft 277 kts 126°
2026-04-25 10:51 1.37310 104.12862 6859 ft 280 kts 126°
2026-04-25 10:52 1.36093 104.14387 7477 ft 282 kts 126°
2026-04-25 10:52 1.34878 104.15922 8110 ft 285 kts 125°
2026-04-25 10:52 1.33643 104.17490 8664 ft 287 kts 126°
2026-04-25 10:52 1.32404 104.19067 8962 ft 289 kts 126°
2026-04-25 10:53 1.31163 104.20644 9017 ft 290 kts 126°
2026-04-25 10:53 1.29921 104.22224 9027 ft 289 kts 126°
2026-04-25 10:53 1.28678 104.23803 9026 ft 289 kts 126°
2026-04-25 10:53 1.27428 104.25392 9017 ft 288 kts 125°
2026-04-25 10:54 1.26188 104.26972 9011 ft 288 kts 125°
2026-04-25 10:54 1.25375 104.28008 9015 ft 288 kts 126°
2026-04-25 10:54 1.23722 104.30117 9011 ft 288 kts 126°
2026-04-25 10:54 1.22478 104.31701 9032 ft 288 kts 126°
2026-04-25 10:55 1.21244 104.33274 9022 ft 288 kts 126°
2026-04-25 10:55 1.20004 104.34852 9013 ft 288 kts 125°
2026-04-25 10:55 1.18767 104.36431 9013 ft 288 kts 126°
2026-04-25 10:55 1.17531 104.38008 9028 ft 289 kts 126°
2026-04-25 10:56 1.16293 104.39584 9036 ft 289 kts 126°
2026-04-25 10:56 1.15047 104.41170 8991 ft 289 kts 126°
2026-04-25 10:56 1.13799 104.42759 8893 ft 288 kts 125°
2026-04-25 10:56 1.12565 104.44328 8863 ft 288 kts 125°
2026-04-25 10:57 1.11155 104.45754 8863 ft 292 kts 142°
2026-04-25 10:57 1.09301 104.46664 8952 ft 301 kts 160°
2026-04-25 10:57 1.07276 104.47239 9559 ft 305 kts 162°
2026-04-25 10:57 1.05247 104.47787 10273 ft 304 kts 162°
2026-04-25 10:58 1.03158 104.48353 10621 ft 318 kts 162°
2026-04-25 10:58 1.00945 104.48960 10903 ft 335 kts 162°
2026-04-25 10:58 0.98652 104.49593 11173 ft 351 kts 162°
2026-04-25 10:58 0.96228 104.50267 11438 ft 367 kts 162°
2026-04-25 10:59 0.93688 104.50972 11696 ft 383 kts 162°
2026-04-25 10:59 0.91083 104.51695 12066 ft 393 kts 162°
2026-04-25 10:59 0.88438 104.52431 12651 ft 397 kts 162°
2026-04-25 10:59 0.85749 104.53177 13283 ft 400 kts 162°
2026-04-25 11:00 0.83061 104.53923 13874 ft 403 kts 162°
2026-04-25 11:00 0.80355 104.54674 14437 ft 407 kts 162°
2026-04-25 11:00 0.77619 104.55432 15015 ft 410 kts 162°
2026-04-25 11:00 0.74846 104.56203 15560 ft 414 kts 162°
2026-04-25 11:01 0.72047 104.56982 16102 ft 418 kts 162°
2026-04-25 11:01 0.69215 104.57770 16645 ft 421 kts 162°
2026-04-25 11:01 0.66395 104.58553 17166 ft 425 kts 162°
2026-04-25 11:01 0.63530 104.59380 17687 ft 428 kts 160°
2026-04-25 11:02 0.60650 104.60240 18186 ft 432 kts 160°
2026-04-25 11:02 0.57775 104.61104 18661 ft 436 kts 160°
2026-04-25 11:02 0.54849 104.61980 19140 ft 439 kts 161°
2026-04-25 11:02 0.51880 104.62866 19600 ft 443 kts 160°
2026-04-25 11:03 0.49046 104.63971 19999 ft 443 kts 148°
2026-04-25 11:03 0.46578 104.65819 20450 ft 440 kts 132°
2026-04-25 11:03 0.44693 104.68205 20896 ft 438 kts 119°
2026-04-25 11:03 0.43179 104.70837 21319 ft 440 kts 117°
2026-04-25 11:04 0.41664 104.73509 21709 ft 444 kts 117°
2026-04-25 11:04 0.40125 104.76215 22101 ft 447 kts 117°
2026-04-25 11:04 0.38594 104.78890 22486 ft 451 kts 117°
2026-04-25 11:04 0.37013 104.81641 22896 ft 453 kts 117°
2026-04-25 11:05 0.35454 104.84347 23300 ft 456 kts 117°
2026-04-25 11:05 0.33859 104.87113 23700 ft 458 kts 117°
2026-04-25 11:05 0.32273 104.89858 24109 ft 460 kts 118°
2026-04-25 11:05 0.30673 104.92626 24520 ft 461 kts 118°
2026-04-25 11:06 0.29070 104.95401 24922 ft 463 kts 118°
2026-04-25 11:06 0.27460 104.98189 25291 ft 465 kts 118°
2026-04-25 11:06 0.25836 105.01000 25648 ft 467 kts 118°
2026-04-25 11:06 0.24214 105.03805 25995 ft 469 kts 118°
2026-04-25 11:07 0.22575 105.06635 26341 ft 471 kts 118°
2026-04-25 11:07 0.20933 105.09472 26654 ft 474 kts 118°
2026-04-25 11:07 0.19271 105.12341 26973 ft 476 kts 118°
2026-04-25 11:07 0.17622 105.15189 27330 ft 477 kts 118°
2026-04-25 11:08 0.15963 105.18057 27817 ft 475 kts 118°
2026-04-25 11:08 0.14322 105.20893 28319 ft 472 kts 119°
2026-04-25 11:08 0.12683 105.23726 28806 ft 470 kts 119°
2026-04-25 11:08 0.11064 105.26524 29254 ft 469 kts 119°
2026-04-25 11:09 0.09444 105.29323 29698 ft 468 kts 119°
2026-04-25 11:09 0.07804 105.32158 30163 ft 466 kts 119°
2026-04-25 11:09 0.06191 105.34944 30593 ft 465 kts 119°
2026-04-25 11:09 0.04568 105.37751 31005 ft 465 kts 119°
2026-04-25 11:10 0.02970 105.40512 31431 ft 464 kts 119°
2026-04-25 11:10 0.01895 105.42371 31713 ft 463 kts 119°
2026-04-25 11:10 -0.00260 105.46097 32306 ft 461 kts 119°
2026-04-25 11:10 -0.01846 105.48840 32761 ft 460 kts 119°
2026-04-25 11:11 -0.03449 105.51610 33255 ft 459 kts 119°
2026-04-25 11:11 -0.05036 105.54355 33670 ft 459 kts 119°
2026-04-25 11:11 -0.06643 105.57134 34031 ft 460 kts 119°
2026-04-25 11:11 -0.08237 105.59889 34384 ft 462 kts 119°
2026-04-25 11:12 -0.09839 105.62659 34741 ft 463 kts 119°
2026-04-25 11:12 -0.11454 105.65451 34866 ft 464 kts 119°
2026-04-25 11:12 -0.13058 105.68224 34872 ft 464 kts 119°
2026-04-25 11:13 -0.16305 105.73838 34875 ft 464 kts 119°
2026-04-25 11:13 -0.19518 105.79396 34877 ft 465 kts 119°
2026-04-25 11:14 -0.22742 105.84971 34876 ft 465 kts 119°
2026-04-25 11:14 -0.25986 105.90582 34875 ft 465 kts 119°
2026-04-25 11:15 -0.29225 105.96185 34877 ft 465 kts 119°
2026-04-25 11:15 -0.32438 106.01739 34875 ft 465 kts 119°
2026-04-25 11:16 -0.37302 106.10152 34872 ft 465 kts 119°
2026-04-25 11:16 -0.40528 106.15734 34872 ft 466 kts 119°
2026-04-25 11:17 -0.43774 106.21349 34870 ft 467 kts 119°
2026-04-25 11:17 -0.47008 106.26942 34873 ft 467 kts 119°
2026-04-25 11:18 -0.50266 106.32581 34870 ft 467 kts 119°
2026-04-25 11:18 -0.53504 106.38186 34871 ft 468 kts 119°
2026-04-25 11:19 -0.56750 106.43806 34875 ft 468 kts 119°
2026-04-25 11:19 -0.60055 106.49370 34880 ft 468 kts 122°
2026-04-25 11:20 -0.63881 106.54654 34887 ft 469 kts 128°
2026-04-25 11:20 -0.68145 106.59568 34887 ft 470 kts 131°
2026-04-25 11:21 -0.72491 106.64455 34887 ft 470 kts 131°
2026-04-25 11:21 -0.76846 106.69357 34885 ft 470 kts 131°
2026-04-25 11:22 -0.81169 106.74229 34883 ft 471 kts 131°
2026-04-25 11:22 -0.85518 106.79131 34880 ft 471 kts 131°
2026-04-25 11:23 -0.89875 106.84043 34879 ft 472 kts 131°
2026-04-25 11:23 -0.94215 106.88935 34879 ft 472 kts 131°
2026-04-25 11:24 -0.98578 106.93855 34880 ft 472 kts 131°
2026-04-25 11:24 -1.02932 106.98766 34878 ft 472 kts 131°
2026-04-25 11:25 -1.07284 107.03672 34881 ft 471 kts 131°
2026-04-25 11:25 -1.11632 107.08575 34881 ft 472 kts 131°
2026-04-25 11:26 -1.15979 107.13480 34881 ft 473 kts 131°
2026-04-25 11:26 -1.20353 107.18413 34881 ft 473 kts 131°
2026-04-25 11:27 -1.24702 107.23319 34881 ft 473 kts 131°
2026-04-25 11:27 -1.28321 107.27405 34878 ft 473 kts 131°
2026-04-25 11:28 -1.33424 107.33166 34874 ft 473 kts 131°
2026-04-25 11:28 -1.37788 107.38099 34867 ft 473 kts 130°
2026-04-25 11:29 -1.42087 107.43070 34861 ft 474 kts 130°
2026-04-25 11:29 -1.46371 107.48041 34860 ft 474 kts 130°
2026-04-25 11:30 -1.50681 107.53037 34859 ft 474 kts 130°
2026-04-25 11:30 -1.54983 107.58025 34860 ft 474 kts 130°
2026-04-25 11:31 -1.59290 107.63017 34861 ft 475 kts 130°
2026-04-25 11:31 -1.63623 107.68037 34861 ft 476 kts 130°
2026-04-25 11:32 -1.67954 107.73060 34861 ft 477 kts 130°
2026-04-25 11:32 -1.72274 107.78069 34863 ft 478 kts 130°
2026-04-25 11:33 -1.76614 107.83099 34866 ft 479 kts 130°
2026-04-25 11:33 -1.80981 107.88165 34872 ft 479 kts 130°
2026-04-25 11:34 -1.85328 107.93204 34877 ft 479 kts 130°
2026-04-25 11:34 -1.89656 107.98224 34879 ft 480 kts 130°
2026-04-25 11:35 -1.94033 108.03302 34879 ft 480 kts 130°
2026-04-25 11:35 -1.98385 108.08352 34879 ft 480 kts 130°
2026-04-25 11:36 -2.02728 108.13393 34881 ft 481 kts 130°
2026-04-25 11:36 -2.07111 108.18473 34879 ft 481 kts 130°
2026-04-25 11:37 -2.11479 108.23527 34879 ft 481 kts 130°
2026-04-25 11:37 -2.15838 108.28576 34878 ft 481 kts 130°
2026-04-25 11:38 -2.20224 108.33659 34879 ft 482 kts 130°
2026-04-25 11:38 -2.24613 108.38748 34880 ft 483 kts 130°
2026-04-25 11:39 -2.28978 108.43810 34880 ft 484 kts 130°
2026-04-25 11:39 -2.33392 108.48930 34881 ft 484 kts 130°
2026-04-25 11:40 -2.37773 108.54015 34880 ft 483 kts 130°
2026-04-25 11:40 -2.42163 108.59108 34880 ft 484 kts 130°
2026-04-25 11:41 -2.46558 108.64211 34880 ft 484 kts 130°
2026-04-25 11:41 -2.50958 108.69305 34880 ft 484 kts 130°
2026-04-25 11:42 -2.55340 108.74363 34879 ft 484 kts 130°
2026-04-25 11:42 -2.59768 108.79478 34876 ft 484 kts 130°
2026-04-25 11:43 -2.64145 108.84536 34870 ft 484 kts 130°
2026-04-25 11:43 -2.68563 108.89647 34869 ft 484 kts 130°
2026-04-25 11:44 -2.72953 108.94727 34869 ft 484 kts 130°
2026-04-25 11:44 -2.77360 108.99827 34866 ft 483 kts 130°
2026-04-25 11:45 -2.81758 109.04916 34864 ft 483 kts 130°
2026-04-25 11:45 -2.86519 109.09666 34861 ft 485 kts 140°
2026-04-25 11:46 -2.92053 109.13509 34861 ft 486 kts 150°
2026-04-25 11:46 -2.98203 109.16320 34861 ft 486 kts 160°
2026-04-25 11:47 -3.04675 109.18340 34861 ft 486 kts 163°
2026-04-25 11:47 -3.11154 109.20276 34861 ft 486 kts 163°
2026-04-25 11:48 -3.17643 109.22228 34864 ft 486 kts 163°
2026-04-25 11:48 -3.24089 109.24176 34871 ft 485 kts 163°
2026-04-25 11:49 -3.30567 109.26139 34877 ft 485 kts 163°
2026-04-25 11:49 -3.37078 109.28114 34879 ft 485 kts 163°
2026-04-25 11:50 -3.43529 109.30070 34881 ft 486 kts 163°
2026-04-25 11:50 -3.50014 109.32037 34882 ft 486 kts 163°
2026-04-25 11:51 -3.56482 109.34000 34882 ft 486 kts 163°
2026-04-25 11:51 -3.62969 109.35969 34882 ft 486 kts 163°
2026-04-25 11:52 -3.69446 109.37935 34881 ft 486 kts 163°
2026-04-25 11:52 -3.75935 109.39904 34882 ft 486 kts 163°
2026-04-25 11:53 -3.82444 109.41879 34880 ft 487 kts 163°
2026-04-25 11:53 -3.88910 109.43843 34880 ft 487 kts 163°
2026-04-25 11:54 -3.95401 109.45815 34881 ft 487 kts 163°
2026-04-25 11:55 -4.05152 109.48776 34882 ft 487 kts 162°
2026-04-25 11:55 -4.11659 109.50752 34878 ft 487 kts 162°
2026-04-25 11:56 -4.18153 109.52725 34876 ft 487 kts 162°
2026-04-25 11:56 -4.24680 109.54710 34875 ft 487 kts 162°
2026-04-25 11:57 -4.31143 109.56675 34874 ft 487 kts 162°
2026-04-25 11:57 -4.37684 109.58662 34875 ft 488 kts 162°
2026-04-25 11:58 -4.44165 109.60634 34873 ft 487 kts 162°
2026-04-25 11:58 -4.50663 109.62609 34875 ft 488 kts 162°
2026-04-25 11:59 -4.57177 109.64590 34876 ft 488 kts 162°
2026-04-25 11:59 -4.63683 109.66571 34878 ft 487 kts 162°
2026-04-25 12:00 -4.73412 109.69532 34881 ft 487 kts 162°
2026-04-25 12:01 -4.83204 109.72512 34880 ft 488 kts 162°
2026-04-25 12:01 -4.89680 109.74483 34879 ft 488 kts 162°
2026-04-25 12:02 -4.99463 109.77464 34884 ft 488 kts 162°
2026-04-25 12:02 -5.05953 109.79441 34890 ft 487 kts 162°
2026-04-25 12:03 -5.12476 109.81428 34895 ft 487 kts 162°
2026-04-25 12:03 -5.18932 109.83397 34900 ft 487 kts 162°
2026-04-25 12:04 -5.25447 109.85383 34901 ft 487 kts 162°
2026-04-25 12:04 -5.31920 109.87357 34902 ft 487 kts 162°
2026-04-25 12:05 -5.38411 109.89336 34903 ft 486 kts 162°
2026-04-25 12:05 -5.44907 109.91318 34902 ft 486 kts 162°
2026-04-25 12:06 -5.51378 109.93291 34902 ft 486 kts 162°
2026-04-25 12:06 -5.57883 109.95277 34902 ft 486 kts 162°
2026-04-25 12:07 -5.64355 109.97252 34900 ft 486 kts 162°
2026-04-25 12:07 -5.70842 109.99232 34891 ft 486 kts 162°
2026-04-25 12:08 -5.77306 110.01206 34883 ft 486 kts 162°
2026-04-25 12:08 -5.83797 110.03190 34882 ft 485 kts 162°
2026-04-25 12:09 -5.90276 110.05170 34882 ft 485 kts 162°
2026-04-25 12:09 -5.96703 110.07133 34882 ft 484 kts 162°
2026-04-25 12:10 -6.03191 110.09116 34884 ft 484 kts 162°
2026-04-25 12:10 -6.09669 110.11098 34882 ft 485 kts 162°
2026-04-25 12:11 -6.16134 110.13075 34883 ft 485 kts 162°
2026-04-25 12:11 -6.22594 110.15052 34886 ft 486 kts 162°
2026-04-25 12:12 -6.29067 110.17033 34889 ft 486 kts 161°
2026-04-25 12:12 -6.35579 110.19025 34892 ft 487 kts 161°
2026-04-25 12:13 -6.42080 110.21017 34895 ft 488 kts 161°
2026-04-25 12:13 -6.48607 110.23016 34897 ft 488 kts 161°
2026-04-25 12:14 -6.55102 110.25005 34898 ft 488 kts 161°
2026-04-25 12:14 -6.61404 110.27456 34904 ft 487 kts 155°
2026-04-25 12:15 -6.64679 110.28367 34883 ft 491 kts 173°
2026-04-25 12:15 -6.68140 110.28449 34913 ft 493 kts 180°
2026-04-25 12:15 -6.74986 110.28323 34906 ft 493 kts 179°
2026-04-25 12:16 -6.81904 110.28361 34910 ft 493 kts 178°
2026-04-25 12:16 -6.85331 110.28430 34730 ft 491 kts 178°
2026-04-25 12:16 -6.88762 110.28515 33848 ft 497 kts 177°
2026-04-25 12:17 -6.92228 110.28610 32681 ft 506 kts 177°
2026-04-25 12:17 -6.95743 110.28713 31737 ft 510 kts 176°
2026-04-25 12:17 -6.99338 110.28819 30944 ft 511 kts 176°
2026-04-25 12:17 -7.02880 110.28926 30140 ft 512 kts 176°
2026-04-25 12:18 -7.06442 110.29034 29371 ft 512 kts 176°
2026-04-25 12:18 -7.09987 110.29142 28619 ft 506 kts 176°
2026-04-25 12:18 -7.13475 110.29247 27927 ft 491 kts 176°
2026-04-25 12:18 -7.16858 110.29349 27290 ft 484 kts 176°
2026-04-25 12:19 -7.22410 110.29517 26409 ft 471 kts 176°
2026-04-25 12:19 -7.26746 110.29646 25865 ft 462 kts 176°
2026-04-25 12:19 -7.29941 110.29742 25442 ft 456 kts 176°
2026-04-25 12:20 -7.33098 110.29838 25019 ft 452 kts 176°
2026-04-25 12:20 -7.36261 110.29934 24635 ft 453 kts 176°
2026-04-25 12:20 -7.39391 110.30028 24159 ft 451 kts 176°
2026-04-25 12:20 -7.42511 110.30122 23702 ft 448 kts 177°
2026-04-25 12:21 -7.45633 110.30215 23248 ft 445 kts 177°
2026-04-25 12:21 -7.48734 110.30308 22798 ft 442 kts 177°
2026-04-25 12:21 -7.51786 110.30399 22354 ft 439 kts 177°
2026-04-25 12:21 -7.54834 110.30490 21906 ft 436 kts 177°
2026-04-25 12:22 -7.57868 110.30581 21452 ft 434 kts 177°
2026-04-25 12:22 -7.60870 110.30670 20997 ft 431 kts 177°
2026-04-25 12:22 -7.63884 110.30760 20536 ft 428 kts 177°
2026-04-25 12:22 -7.66876 110.30849 20073 ft 426 kts 176°
2026-04-25 12:23 -7.69818 110.30937 19615 ft 424 kts 177°
2026-04-25 12:23 -7.72738 110.30689 19123 ft 425 kts 194°
2026-04-25 12:23 -7.75393 110.29394 18664 ft 426 kts 216°
2026-04-25 12:23 -7.77465 110.27242 18201 ft 425 kts 235°
2026-04-25 12:24 -7.78727 110.24574 17741 ft 424 kts 254°
2026-04-25 12:24 -7.79087 110.21648 17292 ft 421 kts 273°
2026-04-25 12:24 -7.78746 110.18777 16871 ft 418 kts 279°
2026-04-25 12:24 -7.78336 110.15858 16428 ft 416 kts 278°
2026-04-25 12:25 -7.77958 110.13013 15982 ft 414 kts 278°
2026-04-25 12:25 -7.77599 110.10134 15532 ft 413 kts 277°
2026-04-25 12:25 -7.77255 110.07251 15080 ft 411 kts 277°
2026-04-25 12:25 -7.76923 110.04423 14631 ft 409 kts 277°
2026-04-25 12:26 -7.76883 110.01624 14059 ft 398 kts 259°
2026-04-25 12:26 -7.77900 109.99081 13660 ft 390 kts 235°
2026-04-25 12:26 -7.79756 109.97143 13361 ft 376 kts 213°
2026-04-25 12:26 -7.81998 109.96024 13261 ft 347 kts 195°
2026-04-25 12:27 -7.84247 109.95438 13176 ft 322 kts 192°
2026-04-25 12:27 -7.86352 109.94921 13082 ft 300 kts 192°
2026-04-25 12:27 -7.88384 109.94411 13033 ft 293 kts 193°
2026-04-25 12:27 -7.90312 109.93914 13011 ft 283 kts 193°
2026-04-25 12:28 -7.92189 109.93420 13001 ft 272 kts 193°
2026-04-25 12:28 -7.94035 109.92930 13009 ft 272 kts 193°
2026-04-25 12:28 -7.95879 109.92438 13007 ft 272 kts 193°
2026-04-25 12:28 -7.97700 109.91950 13015 ft 272 kts 193°
2026-04-25 12:29 -7.99557 109.91454 13017 ft 272 kts 193°
2026-04-25 12:29 -8.01373 109.90970 13013 ft 272 kts 193°
2026-04-25 12:29 -8.03209 109.90480 13003 ft 270 kts 193°
2026-04-25 12:29 -8.05038 109.89997 12844 ft 268 kts 193°
2026-04-25 12:30 -8.06837 109.89524 12588 ft 268 kts 193°
2026-04-25 12:30 -8.08662 109.89043 12352 ft 268 kts 193°
2026-04-25 12:30 -8.10459 109.88569 12115 ft 268 kts 193°
2026-04-25 12:30 -8.12279 109.88090 11883 ft 267 kts 193°
2026-04-25 12:31 -8.14062 109.87620 11654 ft 266 kts 193°
2026-04-25 12:31 -8.15906 109.87419 11386 ft 263 kts 166°
2026-04-25 12:31 -8.17490 109.88201 11153 ft 255 kts 133°
2026-04-25 12:31 -8.18426 109.89690 10920 ft 250 kts 104°
2026-04-25 12:32 -8.18796 109.91383 10711 ft 248 kts 100°
2026-04-25 12:32 -8.19139 109.93090 10492 ft 247 kts 101°
2026-04-25 12:32 -8.19487 109.94771 10276 ft 246 kts 101°
2026-04-25 12:32 -8.19826 109.96466 10058 ft 245 kts 94°
2026-04-25 12:33 -8.19535 109.98122 9790 ft 244 kts 59°
2026-04-25 12:33 -8.18357 109.99324 9552 ft 244 kts 28°
2026-04-25 12:33 -8.16724 109.99824 9324 ft 245 kts 13°
2026-04-25 12:33 -8.15051 110.00174 9119 ft 244 kts 13°
2026-04-25 12:34 -8.13389 110.00533 8673 ft 250 kts 15°
2026-04-25 12:34 -8.11804 110.01290 7897 ft 259 kts 44°
2026-04-25 12:34 -8.10625 110.02678 7142 ft 267 kts 52°
2026-04-25 12:34 -8.09855 110.03653 6634 ft 271 kts 51°
2026-04-25 12:35 -8.08254 110.05653 5611 ft 278 kts 51°
2026-04-25 12:35 -8.07030 110.07170 4851 ft 281 kts 51°
2026-04-25 12:35 -8.05810 110.08680 4100 ft 283 kts 51°
2026-04-25 12:35 -8.04561 110.10224 3277 ft 286 kts 51°
2026-04-25 12:36 -8.03307 110.11769 2582 ft 283 kts 51°
2026-04-25 12:36 -8.02072 110.13251 2159 ft 271 kts 45°
2026-04-25 12:36 -8.00644 110.14408 2023 ft 250 kts 37°
2026-04-25 12:36 -7.99310 110.15344 2011 ft 222 kts 36°
2026-04-25 12:37 -7.98101 110.16184 1997 ft 198 kts 36°
2026-04-25 12:37 -7.97004 110.16903 2003 ft 173 kts 24°
2026-04-25 12:37 -7.95870 110.16875 1991 ft 164 kts 334°
2026-04-25 12:37 -7.95086 110.16074 2019 ft 161 kts 309°
2026-04-25 12:38 -7.94464 110.15148 2005 ft 154 kts 307°
2026-04-25 12:38 -7.93896 110.14252 1822 ft 154 kts 303°
2026-04-25 12:38 -7.93372 110.13260 1367 ft 168 kts 297°
2026-04-25 12:38 -7.92889 110.12189 1092 ft 166 kts 294°
2026-04-25 12:39 -7.92486 110.11138 1005 ft 153 kts 290°
2026-04-25 12:39 -7.92157 110.10094 651 ft 163 kts 288°
2026-04-25 12:39 -7.91739 110.09046 439 ft 156 kts 290°
2026-04-25 12:39 -7.91372 110.08037 256 ft 149 kts 289°
2026-04-25 12:40 -7.91014 110.07068 65 ft 143 kts 288°
2026-04-25 12:40 -7.90709 110.06212 40 ft 106 kts 292°
2026-04-25 12:40 -7.90515 110.05689 40 ft 54 kts 289°
2026-04-25 12:40 -7.90417 110.05422 39 ft 25 kts 295°
2026-04-25 12:41 -7.90379 110.05353 40 ft 0 kts 302°
2026-04-25 12:41 -7.90376 110.05348 40 ft 2 kts 302°
2026-04-25 12:41 -7.90363 110.05328 40 ft 5 kts 305°
2026-04-25 12:41 -7.90332 110.05290 40 ft 8 kts 310°
2026-04-25 12:42 -7.90281 110.05238 40 ft 11 kts 318°
2026-04-25 12:42 -7.90236 110.05199 40 ft 13 kts 320°
2026-04-25 12:42 -7.90125 110.05119 40 ft 15 kts 346°
2026-04-25 12:42 -7.90020 110.05137 40 ft 16 kts 20°
2026-04-25 12:43 -7.89970 110.05212 40 ft 10 kts 111°
2026-04-25 12:43 -7.89992 110.05283 40 ft 11 kts 107°
2026-04-25 12:43 -7.90054 110.05447 40 ft 13 kts 111°
2026-04-25 12:44 -7.90092 110.05546 40 ft 15 kts 110°
2026-04-25 12:44 -7.90134 110.05655 40 ft 14 kts 110°
2026-04-25 12:44 -7.90190 110.05810 40 ft 8 kts 107°
2026-04-25 12:45 -7.90176 110.05836 40 ft 4 kts 17°
2026-04-25 12:45 -7.90147 110.05836 40 ft 5 kts
2026-04-25 12:45 -7.90127 110.05842 40 ft 0 kts 19°